Regional Weather Roundup
Issued by NWS

Home | Current Version | Previous Version | Text Only | Print | Product List | Glossary Off
Versions: 1 2 3 4 5 6 7 8 9 10 11 12 13 14 15 16 17 18 19 20 21 22 23 24 25 26 27 28 29 30 31 32 33 34 35 36 37 38 39 40 41 42 43 44 45 46 47 48 49 50

000
ASUS45 KCYS 300710
RWRWY

WYOMING REGIONAL WEATHER ROUNDUP
NATIONAL WEATHER SERVICE CHEYENNE WY
100 AM MDT THU JUL 30 2015

NOTE:  "FAIR" INDICATES FEW OR NO CLOUDS BELOW 12,000 FEET
WITH NO SIGNIFICANT WEATHER AND/OR OBSTRUCTIONS TO VISIBILITY.

WYZ001-300800-
YELLOWSTONE NATIONAL PARK

CITY           SKY/WX    TMP DP  RH WIND       PRES   REMARKS
LK YELLOWSTONE   N/A     40  34  79 W3        30.53R
W YELLOWSTONE  NOT AVBL

$$
WYZ002>013-054>058-071-098>099-300800-
NORTHERN WYOMING

CITY           SKY/WX    TMP DP  RH WIND       PRES   REMARKS
JACKSON        FAIR      48  39  71 CALM      30.44R
CODY           FAIR      57  32  38 S5        30.34R
GREYBULL       FAIR      59  33  37 W8        30.24R
WORLAND        FAIR      57  30  35 SW7       30.25R
SHERIDAN       FAIR      50  42  74 SW3       30.27R
BUFFALO        FAIR      58  37  45 W7        30.33R
GILLETTE       FAIR      51  39  63 CALM      30.28R
HULETT         FAIR      54  37  54 S6        30.29R
NEWCASTLE      FAIR      55  37  50 N7        30.28R

$$
WYZ014>020-022>026-101>103-300800-
CENTRAL WYOMING

CITY           SKY/WX    TMP DP  RH WIND       PRES   REMARKS
BIG PINEY      FAIR      49  32  52 VRB6      30.46R
PINEDALE       FAIR      45  34  65 CALM      30.46R
DUBOIS         FAIR      46  30  53 NW9       30.46R
LANDER         FAIR      60  30  32 SW8       30.32R
RIVERTON       FAIR      60  32  34 NW10      30.33R
CASPER         FAIR      51  28  41 NW8       30.32R
DOUGLAS        FAIR      57  45  64 SE5       30.30R

$$
WYZ021-027>030-104>119-300800-
SOUTHERN WYOMING

CITY           SKY/WX    TMP DP  RH WIND       PRES   REMARKS
EVANSTON       FAIR      55  22  27 E3        30.45R
KEMMERER       FAIR      50  32  50 N10       30.46S
FORT BRIDGER   SUNNY     59  21  23 W9        30.47R
ROCK SPRINGS   FAIR      58  18  21 W10       30.41S
DIXON          FAIR      50  21  32 E5        30.43R
RAWLINS        FAIR      48  14  25 N5        30.40S
SARATOGA       FAIR      45  21  39 S5        30.43S
LARAMIE        FAIR      52  45  77 SE3       30.43S
CHEYENNE       FAIR      62  46  55 SW6       30.36S
TORRINGTON     FAIR      63  50  62 E5        30.25S
PINE BLUFFS    FAIR      63  45  51 S13G18    30.31S

$$



USA.gov is the U.S. government's official web portal to all federal, state and local government web resources and services.